Regional Weather Roundup
Issued by NWS

Home | Current Version | Previous Version | Text Only | Print | Product List | Glossary On
Versions: 1 2 3 4 5 6 7 8 9 10 11 12 13 14 15 16 17 18 19 20 21 22 23 24 25 26 27 28 29 30 31 32 33 34 35 36 37 38 39 40 41 42 43 44 45 46 47 48 49 50
000
ASUS43 KDTX 161110
RWRMI
MICHIGAN HOURLY REGIONAL WEATHER ROUNDUP
NATIONAL WEATHER SERVICE DETROIT/PONTIAC MI
600 AM EST SAT DEC 16 2017

NOTE: "FAIR" INDICATES FEW OR NO CLOUDS BELOW 12,000 FEET WITH NO
SIGNIFICANT WEATHER AND/OR OBSTRUCTION TO VISIBILITY.

MIZ047>049-052>055-059>063-066>070-074>076-081>083-161200-
SOUTHEAST LOWER MICHIGAN

CITY           SKY/WX    TMP DP  RH WIND       PRES   REMARKS
ALMA           LGT SNOW  23  23  99 N6        29.89R WCI  16
ANN ARBOR      CLOUDY    30  23  75 S9        29.88S WCI  22
BAD AXE        CLOUDY    21  16  83 W3        29.90R
CARO           LGT SNOW  22  20  91 W3        29.90R
DETROIT CITY   LGT SNOW  30  26  85 W9        29.90R FOG     WCI  22
DETROIT        FLURRIES  33  24  69 SW14      29.89F WCI  23
FLINT          LGT SNOW  24  21  88 NE3       29.89R FOG
GROSSE ILE     CLOUDY    32  24  71 SW10      29.89S WCI  24
HILLSDALE      CLOUDY    30  21  69 SW5       29.86S WCI  25
HOWELL         LGT SNOW  30  28  92 W6        29.86R WCI  24

CITY           SKY/WX    TMP DP  RH WIND       PRES   REMARKS
JACKSON        CLOUDY    33  23  66 SW16      29.86S WCI  23
LAMBERTVILLE   CLOUDY    33  24  67 SW8       29.92R WCI  27
LANSING        LGT SNOW  25  24  96 NE6       29.87R FOG     WCI  18
LAPEER         LGT SNOW  23  22  97 CALM      29.89R
MASON          CLOUDY    32  24  73 SW6       29.86R WCI  26
MONROE         CLOUDY    33  22  66 SW12      29.90R WCI  24
MT. CLEMENS    PTCLDY    25  25 100 N3        29.88R
PONTIAC        LGT SNOW  24  23  96 CALM      29.86R FOG
PORT HOPE        N/A     22  15  75 SW5       29.89R WCI  16
PORT HURON     LGT SNOW  23  19  86 CALM      29.91R
TRI CITIES     LGT SNOW  22  20  92 CALM      29.91R VSB 1
MIDLAND        LGT SNOW  21  19  93 CALM      29.89S
TROY           LGT SNOW  29  27  92 SW6       29.90R WCI  23
SAGINAW HB     LGT SNOW  23  21  93 N3        29.91R
$$
MIZ043>046-050>051-056>058-064>065-071>073-077>080-161200-
SOUTHWEST LOWER MICHIGAN

CITY           SKY/WX    TMP DP  RH WIND       PRES   REMARKS
BATTLE CREEK   CLOUDY    32  25  75 SW8       29.85F WCI  25
BENTON HARBOR  CLOUDY    38  25  59 SW13G24   29.85S WCI  30
BIG RAPIDS     LGT SNOW  19  17  93 CALM      29.86R
COLDWATER      CLOUDY    33  23  67 SW8       29.86F WCI  26
HOLLAND        CLOUDY    37  29  72 W8        29.84S WCI  31
GRAND RAPIDS   LGT SNOW  26  25  96 E5        29.85R FOG     WCI  20
IONIA          LGT SNOW  25  24  96 NE5       29.86R WCI  19
KALAMAZOO      CLOUDY    34  24  67 SW8       29.85F WCI  27
LUDINGTON      FLURRIES  22  19  91 E5        29.86S WCI  15
MARSHALL       CLOUDY    31  25  77 SW7       29.86S WCI  24
MOUNT PLEASANT LGT SNOW  21  19  91 CALM      29.88R
MUSKEGON       FLURRIES  26  22  84 NE7       29.86R WCI  18
SOUTH HAVEN    CLOUDY    38  28  66 SW9       29.84S WCI  31
$$
MIZ016>042-161200-
NORTHERN LOWER MICHIGAN

CITY           SKY/WX    TMP DP  RH WIND       PRES   REMARKS
ALPENA         LGT SNOW  16  14  92 NW5       29.91R FOG     WCI   9
BEAVER ISLAND  FLURRIES  17  13  83 NE5       29.90R WCI  10
BELLAIRE       CLOUDY    18  18  99 CALM      29.89R
CADILLAC       FLURRIES  15  13  91 CALM      29.82S
CHARLEVOIX     LGT SNOW  19  15  82 E7        29.92R WCI  10
FRANKFORT      CLOUDY    21  17  85 CALM      29.88R
GAYLORD        CLOUDY    15  11  83 NE7       29.84R WCI   5
GRAYLING       CLOUDY    17  13  84 CALM      29.86R
HARBOR SPRINGS LGT SNOW  15  11  83 NE7       29.90R WCI   5
HOUGHTON LAKE  CLOUDY    18  13  80 W3        29.85R
MANISTEE       LGT SNOW  19  15  84 E3        29.87S FOG
OSCODA         CLOUDY    13   9  83 SW5       29.90R WCI   5
PELLSTON       MOCLDY    11   9  92 E3        29.92R
ROGERS CITY    CLOUDY    17  11  79 N9        29.92R WCI   5
TRAVERSE CITY  CLOUDY    21  14  74 CALM      29.87S
$$
MIZ007>008-015-161200-
EASTERN UPPER MICHIGAN

CITY           SKY/WX    TMP DP  RH WIND       PRES   REMARKS
KINROSS        CLOUDY     2  -3  80 NE7       29.93R WCI -11
MACKINAC ISLAN PTCLDY     9   4  80 NE10      29.92R WCI  -5
NEWBERRY       CLOUDY    10   9  96 NE5       29.90R WCI   1
S. S. MARIE    CLOUDY     4  -4  69 NE5       29.93R WCI  -5
MUNISING         N/A     14  11  87 SE7       29.89R WCI   4
$$
MIZ004>006-011>014-085-161200-
CENTRAL UPPER MICHIGAN

CITY           SKY/WX    TMP DP  RH WIND       PRES   REMARKS
MANISTIQUE     CLOUDY     9   4  81 E6        29.90R WCI  -1
ESCANABA       CLOUDY    12   5  73 CALM      29.89S
MENOMINEE      CLOUDY    13   6  74 N6        29.89S WCI   4
SAWYER-GWINN   CLOUDY    -1  -4  87 NW3       29.85R
$$
MIZ001>003-009>011-084-161200-
WESTERN UPPER MICHIGAN

CITY           SKY/WX    TMP DP  RH WIND       PRES   REMARKS
IRON MOUNTAIN  CLOUDY     9   4  80 NW3       29.84R
HOUGHTON       CLOUDY    13   6  74 NE6       29.86R WCI   4
COPPER HARBOR    N/A     18  11  74 E8        29.90R WCI   8
IRONWOOD       CLOUDY     8   4  83 E6        29.83R WCI  -2
$$

ABBREVIATIONS USED IN REMARKS
   TC - TEMPERATURE IN CELSIUS
  WCI - WIND CHILL INDEX
   HX - HEAT INDEX
  VSB - VISIBILITY





USA.gov is the U.S. government's official web portal to all federal, state and local government web resources and services.